This week only. Pastebin PRO Accounts Christmas Special! Don't miss out!Want more features on Pastebin? Sign Up, it's FREE!
Guest

Untitled

By: a guest on Oct 6th, 2013  |  syntax: None  |  size: 6.36 KB  |  views: 1  |  expires: Never
download  |  raw  |  embed  |  report abuse  |  print
Text below is selected. Please press Ctrl+C to copy to your clipboard. (⌘+C on Mac)
  1. C:\ProgramData\Hi-Rez Studios\HiPatchService:
  2. HiPatchService.config                   1260        , 9/20/2013 12:18:32 PM , 9/20/2013 2:19:00 PM
  3. C:\ProgramData\Hi-Rez Studios\HiPatchService\log:
  4. 2013_09_20_12_18_34Z.log                222259      , 9/20/2013 12:18:34 PM , 9/20/2013 2:22:06 PM
  5. Exceptions.log                          1712        , 9/20/2013 12:19:39 PM , 9/20/2013 2:16:39 PM
  6. Support_OS.txt                          2594        , 9/20/2013 2:22:07 PM  , 9/20/2013 2:22:09 PM
  7. Support_RegDump.txt                     7368        , 9/20/2013 2:22:09 PM  , 9/20/2013 2:22:09 PM
  8. C:\ProgramData\Hi-Rez Studios\HiPatchService\state:
  9. HiPatch.db                              19126       , 9/20/2013 12:18:34 PM , 9/20/2013 2:22:06 PM
  10. HiPatch.db.bak                          19126       , 9/20/2013 12:18:34 PM , 9/20/2013 2:22:06 PM
  11. C:\Program Files (x86)\Hi-Rez Studios:
  12. app.config                              120         , 9/20/2013 12:18:31 PM , 5/15/2013 6:24:48 PM
  13. Awesomium.dll                           21438776    , 9/20/2013 12:18:31 PM , 2/23/2012 1:02:22 PM
  14. Awesomium.Mono.dll                      171320      , 9/20/2013 12:18:29 PM , 5/15/2013 6:23:14 PM
  15. Awesomium.Mono.xml                      290666      , 9/20/2013 12:18:31 PM , 5/15/2013 6:23:14 PM
  16. AwesomiumProcess.exe                    453944      , 9/20/2013 12:18:31 PM , 2/23/2012 1:02:24 PM
  17. expapply.dll                            197464      , 9/20/2013 12:18:31 PM , 7/1/2013 7:04:00 PM
  18. expapply64.dll                          231768      , 9/20/2013 12:18:31 PM , 7/1/2013 7:04:00 PM
  19. HiPatchInstHelper.exe                   11776       , 9/20/2013 12:18:31 PM , 8/28/2013 5:57:44 PM
  20. HiPatchSelfUpdateWindow.exe             14848       , 9/20/2013 12:18:31 PM , 8/28/2013 2:20:28 PM
  21. HiPatchService.config                   96          , 9/20/2013 12:18:34 PM , 9/20/2013 12:18:34 PM
  22. HiPatchService.exe                      9216        , 9/20/2013 12:18:31 PM , 8/28/2013 5:57:44 PM
  23. HirezGameNotifier.exe                   1112064     , 9/20/2013 12:18:31 PM , 8/28/2013 5:57:46 PM
  24. HiRezGamesDiagAndSupport.exe            888832      , 9/20/2013 12:18:31 PM , 8/28/2013 5:57:44 PM
  25. HiRezLauncherControls.dll               33792       , 9/20/2013 12:18:31 PM , 8/28/2013 2:20:28 PM
  26. HiRezLauncherUI.exe                     855552      , 9/20/2013 12:18:29 PM , 8/28/2013 6:01:36 PM
  27. HirezUtils.dll                          107008      , 9/20/2013 12:18:31 PM , 8/28/2013 2:20:26 PM
  28. ICSharpCode.SharpZipLib.dll             200704      , 9/20/2013 12:18:29 PM , 5/15/2013 6:24:48 PM
  29. icudt42.dll                             10947384    , 9/20/2013 12:18:31 PM , 2/23/2012 3:45:08 PM
  30. NPSWF32.dll                             14586808    , 9/2/2013 3:15:02 PM   , 11/8/2012 12:47:08 PM
  31. PatcherData.dll                         33792       , 9/20/2013 12:18:31 PM , 8/28/2013 2:20:28 PM
  32. PatcherEngine.dll                       542720      , 9/20/2013 12:18:29 PM , 8/28/2013 6:01:36 PM
  33. PatcherMisc.dll                         77312       , 9/20/2013 12:18:29 PM , 8/28/2013 6:01:36 PM
  34. PortalAccess.dll                        22016       , 9/20/2013 12:18:31 PM , 8/28/2013 2:20:28 PM
  35. ReduxDecompress.exe                     24064       , 9/20/2013 12:18:31 PM , 8/28/2013 2:20:30 PM
  36. C:\Program Files (x86)\Hi-Rez Studios\HiRezGames:
  37. C:\Program Files (x86)\Hi-Rez Studios\hireztemp:
  38. SM_0.1.1738.0_new.dfc.temp              235138040   , 9/20/2013 1:44:26 PM  , 9/20/2013 2:22:06 PM
  39. C:\Program Files (x86)\Hi-Rez Studios\locales:
  40. en-US.dll                               110592      , 9/20/2013 12:18:30 PM , 5/5/2011 9:22:14 PM
  41. C:\Program Files (x86)\Hi-Rez Studios\Skins:
  42. 1.hzskin                                61          , 9/20/2013 12:18:30 PM , 5/15/2013 6:24:58 PM
  43. 10.hzskin                               63          , 9/20/2013 12:18:30 PM , 5/15/2013 6:24:58 PM
  44. 11.hzskin                               100         , 9/20/2013 12:18:30 PM , 5/15/2013 6:24:58 PM
  45. 12.hzskin                               90          , 9/20/2013 12:18:30 PM , 5/15/2013 6:24:58 PM
  46. 16.hzskin                               59          , 9/20/2013 12:18:30 PM , 5/15/2013 6:24:58 PM
  47. 16_001.jpg                              98526       , 9/20/2013 12:18:30 PM , 8/14/2013 11:20:38 AM
  48. 16_001_new.jpg                          77593       , 9/20/2013 12:18:30 PM , 5/15/2013 6:24:58 PM
  49. 17.hzskin                               32          , 9/20/2013 12:18:30 PM , 5/15/2013 6:24:58 PM
  50. 18.hzskin                               51          , 9/20/2013 12:18:30 PM , 5/15/2013 6:24:58 PM
  51. 19.hzskin                               61          , 9/20/2013 12:18:30 PM , 5/15/2013 6:24:58 PM
  52. 1_001.png                               510967      , 9/20/2013 12:18:30 PM , 5/15/2013 6:24:58 PM
  53. 1_001_new.jpg                           71817       , 9/20/2013 12:18:30 PM , 5/15/2013 6:24:58 PM
  54. 1_002.png                               543386      , 9/20/2013 12:18:30 PM , 5/15/2013 6:24:58 PM
  55. 1_003.png                               502285      , 9/20/2013 12:18:30 PM , 5/15/2013 6:25:00 PM
  56. 20.hzskin                               114         , 9/20/2013 12:18:30 PM , 5/15/2013 6:25:00 PM
  57. 3.hzskin                                94          , 9/20/2013 12:18:30 PM , 5/15/2013 6:25:00 PM
  58. 9.hzskin                                97          , 9/20/2013 12:18:30 PM , 5/15/2013 6:25:00 PM
  59. 9_001.png                               652854      , 9/20/2013 12:18:30 PM , 5/15/2013 6:25:00 PM
  60. 9_001_new.jpg                           74378       , 9/20/2013 12:18:30 PM , 5/15/2013 6:25:00 PM
  61. 9_003.png                               579776      , 9/20/2013 12:18:30 PM , 5/15/2013 6:25:00 PM
  62. 9_004.png                               596267      , 9/20/2013 12:18:30 PM , 5/15/2013 6:25:00 PM
  63. HiRezIcon.ico                           16958       , 9/20/2013 12:18:30 PM , 5/15/2013 6:25:00 PM
  64. Icon100.ico                             3262        , 9/20/2013 12:18:30 PM , 5/15/2013 6:25:00 PM
  65. Icon200.ico                             9662        , 9/20/2013 12:18:31 PM , 5/15/2013 6:25:00 PM
  66. Icon300.ico                             16958       , 9/20/2013 12:18:31 PM , 5/15/2013 6:25:00 PM
  67. C:\Program Files (x86)\Steam\steamapps\common\global agenda:
  68. **DOES NOT EXIST**
  69. C:\Program Files\Steam\steamapps\common\global agenda:
  70. **DOES NOT EXIST**
  71. C:\Program Files (x86)\Steam\steamapps\common\tribes ascend:
  72. **DOES NOT EXIST**
  73. C:\Program Files\Steam\steamapps\common\tribes ascend:
  74. **DOES NOT EXIST**
clone this paste RAW Paste Data